RH
14 25 74 87 87 84 88 96 99 100 100 100 74 38 65 86 100 100 96 99 100 98 100 71 92 67 77 92 95 89 94 89 70 60 66 68 66 96 100 100 100 98 92 43 70 100 99 98 100 100 76 61 44 31
31 79 89 88 89 97 100 100 100 100 100 100 97 34 64 97 100 88 86 96 100 91 84 39 45 51 34 49 100 100 83 99 92 94 94 87 80 100 98 97 100 100 91 80 40 30 43 44 55 49 36 29 42 64
78 86 84 86 96 100 100 100 100 100 100 100 76 30 59 100 91 74 80 97 97 57 62 38 46 48 30 62 74 46 77 100 99 100 100 89 99 95 93 83 99 98 81 76 66 41 45 95 68 41 65 50 75 99
83 92 98 97 92 83 89 98 100 100 100 75 22 40 88 95 71 66 66 67 57 51 64 65 42 30 31 33 32 71 97 99 100 100 98 100 100 99 100 91 84 100 100 80 90 100 68 63 100 52 55 67 66 63
95 97 83 69 64 67 68 60 78 100 100 22 31 67 67 63 61 60 56 56 71 74 51 35 22 22 24 36 62 93 100 100 100 100 86 96 99 100 99 95 100 100 100 100 100 100 100 100 100 81 54 52 55 48
88 62 77 75 74 66 45 45 62 100 100 30 34 57 52 54 59 51 52 68 61 37 30 26 47 69 82 100 99 98 100 100 100 100 96 97 96 100 100 100 98 97 82 96 100 100 97 81 69 66 71 59 45 40
67 82 80 72 88 88 62 51 68 100 100 83 28 44 56 61 56 46 52 62 48 100 99 100 100 99 100 100 100 100 100 100 100 100 98 100 99 100 100 100 99 100 100 92 87 91 78 60 52 66 60 55 44 40
92 95 99 97 73 64 76 54 78 100 100 98 39 27 34 62 43 36 66 33 48 100 100 100 100 100 100 100 100 100 100 100 100 100 98 100 100 100 97 92 95 100 91 94 90 78 71 71 59 52 54 52 47 48
68 98 82 44 55 59 82 62 78 100 100 100 93 53 52 40 27 36 78 69 61 100 100 100 92 100 100 100 100 100 100 100 99 96 100 99 100 94 96 100 100 100 100 100 94 72 77 75 69 62 54 42 34 30
100 99 84 60 92 60 78 66 82 100 100 100 100 100 100 100 98 89 67 80 100 99 100 100 100 100 100 100 100 100 100 100 100 100 100 99 96 100 100 100 100 100 100 91 74 72 58 48 45 42 37 34 32 26
74 84 69 73 74 99 80 82 100 100 100 100 100 100 100 100 100 100 100 96 89 93 98 99 100 100 99 100 100 100 100 100 100 100 100 99 88 100 100 100 100 96 89 78 64 57 54 48 47 44 45 40 32 37
100 89 100 91 100 88 86 100 100 100 100 97 99 100 100 100 100 100 99 100 100 100 100 100 100 100 100 100 100 100 100 100 100 100 99 86 92 100 100 100 100 98 91 78 72 67 65 67 68 65 72 67 63 58
94 96 100 100 98 96 100 100 100 100 100 100 100 100 100 95 100 100 90 100 98 100 100 100 100 100 92 87 94 98 92 79 66 60 43 49 61 82 100 96 94 100 98 91 85 75 66 65 58 54 61 63 64 58
100 100 96 100 100 100 100 100 100 100 100 100 98 86 90 86 91 97 89 93 93 80 77 70 69 67 72 77 75 65 62 65 53 46 60 74 71 73 87 91 91 96 100 97 76 83 88 79 67 52 51 53 58 72
92 89 98 94 99 100 100 100 100 100 100 100 93 79 69 67 70 67 78 81 75 64 56 49 48 53 61 66 75 56 60 60 63 79 100 85 84 80 72 77 71 87 97 86 82 68 62 57 52 55 65 78 90 93
98 85 84 72 79 84 85 96 97 92 99 100 100 84 62 68 63 61 67 56 56 57 54 47 46 67 92 80 85 80 80 84 91 92 92 88 82 74 86 91 84 74 74 72 60 67 71 73 77 92 100 100 100 100
100 100 98 99 94 69 71 79 91 79 66 65 67 73 66 59 54 50 60 56 50 42 46 70 74 86 98 78 83 93 100 100 88 85 74 68 82 91 75 60 53 51 61 74 87 98 100 100 100 100 100 100 100 100
100 100 100 100 100 100 100 100 100 100 99 89 87 86 88 98 100 100 100 97 84 88 87 100 100 100 98 97 94 95 94 96 100 99 90 86 90 93 92 95 100 100 100 100 100 100 100 100 100 100 100 100 100 98
100 100 100 100 96 98 100 92 93 91 91 97 98 97 94 90 81 83 86 86 92 96 94 95 100 100 100 98 93 92 95 100 97 95 96 95 99 100 100 100 100 100 100 100 100 100 100 97 84 64 44 33 30 31
100 100 100 100 100 100 100 93 77 68 64 70 76 78 74 72 68 67 71 79 88 93 92 93 90 86 88 92 92 93 91 97 100 100 100 100 100 100 100 100 100 92 75 51 36 27 28 32 36 38 39 39 38 37
90 100 100 100 100 100 100 94 81 78 70 69 70 72 75 73 77 81 84 86 85 90 96 99 98 95 94 100 100 100 100 100 100 100 100 100 87 39 24 24 30 36 40 42 43 43 44 43 42 41 38 36 33 29
93 100 100 100 100 100 100 98 90 78 72 71 74 77 79 77 78 82 82 86 92 98 100 100 100 100 100 100 100 85 44 26 21 22 25 30 35 39 43 45 45 46 46 45 44 43 41 39 38 36 32 23 13 9
87 99 100 100 100 98 100 100 94 70 64 72 75 80 84 91 99 100 100 100 100 100 100 95 78 49 30 20 21 27 32 35 39 42 44 45 46 46 46 46 46 46 46 44 42 42 43 39 26 15 10 9 9 9
97 100 100 99 80 57 51 47 69 96 96 94 98 100 100 100 96 64 37 21 15 13 14 19 29 37 41 42 44 47 48 48 48 48 48 47 47 48 49 49 48 47 48 50 48 35 18 12 11 10 10 11 13 15
88 100 100 100 92 80 58 46 34 45 60 62 65 41 26 18 14 12 11 13 22 39 46 48 50 52 54 53 53 52 52 53 52 54 54 54 53 53 51 52 55 52 36 20 13 12 12 11 12 15 20 22 19 18
82 92 92 76 75 76 71 52 31 23 17 11 10 9 10 18 35 45 49 53 55 57 58 59 59 59 58 58 58 61 63 66 66 63 60 56 54 54 44 29 19 14 13 12 12 13 16 20 24 25 24 20 18 20
77 72 70 68 65 59 56 57 38 18 11 9 10 22 38 48 55 58 62 65 64 66 65 65 65 66 66 68 72 78 82 78 69 64 56 46 31 19 14 13 13 13 14 16 20 24 26 27 24 23 23 21 22 24
69 68 73 75 75 66 46 25 13 9 9 12 25 31 46 54 57 62 64 67 69 69 70 71 74 76 79 81 88 88 77 70 60 47 30 17 14 13 13 14 15 17 20 24 29 31 29 25 24 25 24 24 26 29
62 74 82 77 73 54 20 11 10 12 16 24 32 46 50 61 61 61 62 65 73 76 74 77 82 87 88 89 85 75 68 55 35 20 14 14 13 14 14 14 15 18 23 30 31 28 27 27 28 28 27 26 27 29
70 79 90 81 49 16 10 16 18 21 27 35 35 39 48 48 50 57 62 69 81 82 82 85 91 92 90 82 72 63 43 24 16 14 13 14 14 14 15 17 22 26 27 27 26 26 26 26 27 27 27 27 27 26
65 61 45 17 12 18 28 30 30 31 32 32 37 36 36 43 49 62 73 88 91 91 88 90 91 89 78 69 55 34 20 16 14 14 15 15 15 16 19 21 22 22 21 20 20 21 22 24 26 28 30 32 35 36
20 14 17 25 36 40 42 42 40 43 42 40 39 41 43 51 67 82 93 97 96 91 92 93 88 76 65 46 25 17 16 14 15 16 17 17 18 18 17 16 17 21 26 30 33 36 41 45 49 52 54 56 57 57
37 43 43 42 41 38 37 41 40 40 42 42 48 54 66 76 90 96 100 97 93 95 93 84 73 58 36 21 18 16 15 16 18 18 18 20 20 18 18 20 24 28 36 45 53 58 62 62 61 59 55 49 44 41
Wind_Speed
36 33 29 24 20 16 15 16 18 16 25 27 24 23 24 24 24 24 23 32 35 27 26 29 30 31 31 25 19 19 23 22 24 25 21 20 17 20 20 15 10 16 20 37 54 47 47 41 35 41 42 41 42 43
29 25 20 15 12 12 11 11 12 16 23 26 24 24 23 21 22 22 27 29 29 25 26 29 31 30 33 31 27 26 24 20 22 25 25 15 18 20 19 21 18 21 12 20 33 44 49 49 51 50 49 37 36 38
23 19 15 14 15 16 16 15 14 15 19 22 23 21 20 19 20 21 26 27 23 23 28 28 27 28 32 31 33 31 28 23 22 22 20 20 22 19 18 19 21 14 11 16 20 24 29 27 28 33 35 35 36 40
19 17 19 20 20 18 19 20 18 16 16 16 16 16 16 18 21 23 23 24 24 23 24 21 28 28 27 31 31 26 29 28 22 19 20 22 21 18 16 19 20 18 11 17 20 21 19 21 27 25 25 24 26 28
17 17 16 15 15 15 15 15 16 12 11 11 12 14 16 20 24 25 25 24 22 16 21 25 23 26 28 29 28 28 29 31 28 28 25 26 21 18 17 18 18 25 14 18 27 18 27 23 18 25 26 27 28 28
14 14 15 12 12 15 16 15 15 12 11 11 14 17 22 25 27 27 26 24 20 20 23 20 23 23 24 24 25 27 28 35 34 28 26 26 23 19 18 16 20 22 27 25 26 27 29 29 26 26 26 28 29 28
14 13 11 14 15 16 17 15 16 13 15 15 18 20 22 23 24 23 21 20 25 28 25 22 17 20 19 19 24 27 29 33 31 28 26 23 21 25 19 19 17 20 22 26 29 28 27 28 28 29 28 29 29 31
8 14 16 17 17 16 19 15 18 17 17 20 22 24 24 21 22 23 23 22 30 32 26 24 16 11 17 21 25 26 28 31 33 32 28 25 24 18 23 24 23 23 26 26 29 29 29 30 29 29 29 30 31 33
11 12 10 9 11 10 16 16 23 24 20 24 25 25 23 22 20 23 25 24 32 31 28 22 18 10 17 21 19 19 24 26 29 31 31 28 27 28 27 22 22 22 26 25 28 28 28 28 28 27 28 28 30 33
10 9 11 14 12 14 18 19 26 29 26 25 26 25 27 27 24 23 26 26 24 24 22 17 15 12 12 16 20 20 22 24 26 24 24 26 26 27 25 25 20 22 24 25 23 24 24 24 24 25 28 31 33 36
13 13 6 6 14 20 21 25 32 31 32 29 26 23 26 29 24 23 23 23 23 21 19 18 16 12 14 16 19 18 19 21 23 23 26 28 28 27 26 22 22 25 23 24 24 24 22 23 26 28 31 32 30 30
10 9 13 16 22 22 27 39 37 31 29 27 25 32 34 30 25 23 25 23 19 16 17 16 16 12 15 12 11 11 12 17 18 17 22 28 29 27 25 26 25 26 24 25 23 24 28 30 29 28 29 31 32 31
15 21 22 22 26 30 34 40 33 31 33 36 37 31 29 30 27 25 26 20 16 13 16 14 15 14 16 18 15 12 11 12 15 17 20 21 23 22 25 28 29 31 31 30 30 30 28 30 31 33 33 34 31 31
19 20 29 31 31 29 37 39 36 30 26 35 37 33 27 24 19 10 10 9 13 14 15 16 17 17 15 16 17 14 10 10 10 4 2 9 18 24 26 30 33 29 32 29 29 28 30 32 33 35 36 34 34 35
26 29 27 31 30 31 32 31 31 31 28 37 32 27 18 13 13 14 14 13 14 16 16 15 16 15 16 14 15 15 14 12 9 7 10 12 13 17 20 21 21 21 23 26 27 29 31 32 34 34 33 33 34 37
25 29 32 32 28 28 28 27 25 22 22 27 28 20 14 15 16 15 12 13 12 14 16 16 15 15 9 13 11 13 13 11 15 13 12 11 13 14 14 17 19 21 25 29 32 31 32 32 31 31 33 34 36 35
24 28 28 29 29 24 22 19 25 18 16 16 15 15 15 17 16 15 13 13 14 16 15 15 16 13 9 14 9 11 14 15 15 15 14 15 17 14 17 21 24 26 28 30 30 29 29 30 32 34 35 35 36 36
11 12 13 16 14 11 13 13 12 12 16 18 17 16 16 16 15 15 13 12 13 12 14 12 11 12 13 13 14 14 14 12 12 14 16 18 19 21 22 24 24 23 24 28 30 31 33 34 33 34 34 35 36 37
10 10 13 16 16 15 15 16 16 17 18 18 19 19 17 16 14 13 12 12 11 11 12 12 12 12 12 12 13 12 12 12 15 17 19 21 22 24 24 27 28 28 28 28 26 26 27 28 30 33 35 38 41 44
10 11 11 10 7 6 10 15 17 18 19 19 18 17 15 15 14 13 11 10 10 10 11 11 12 12 11 10 11 13 16 19 19 19 19 21 23 22 18 17 18 20 22 24 27 30 33 36 39 41 44 47 50 52
9 8 9 9 7 6 9 13 16 18 19 19 18 17 17 16 15 13 12 11 11 10 9 8 8 9 11 13 16 19 18 17 18 17 13 13 15 18 20 22 24 27 29 32 34 37 40 43 46 49 52 54 57 59
8 5 5 8 10 12 12 13 17 18 19 19 19 19 17 16 15 13 12 11 11 10 10 10 11 13 13 11 7 6 7 9 11 13 16 18 21 23 25 28 31 34 36 39 42 45 47 50 52 56 59 59 58 58
9 8 14 21 26 27 25 21 17 17 20 20 20 19 17 15 13 11 10 10 9 8 7 6 5 5 5 6 8 10 12 13 16 19 22 24 27 30 32 35 38 41 43 45 47 50 54 57 57 57 57 57 58 57
13 18 24 24 24 23 24 25 23 20 19 20 20 18 18 18 18 18 16 13 10 7 4 2 3 6 8 10 11 14 17 20 22 25 27 29 32 35 38 40 42 44 47 51 54 55 55 55 56 56 55 52 49 44
18 20 20 20 19 19 19 23 21 18 19 21 20 19 18 14 11 8 6 3 2 3 5 7 9 11 13 14 16 18 21 23 25 28 31 33 36 38 41 44 48 50 52 52 53 54 54 53 50 46 42 38 35 31
21 21 20 19 17 16 14 16 17 16 14 13 12 10 9 6 3 1 1 1 2 5 6 7 9 11 13 15 19 21 24 27 30 34 36 38 42 44 47 47 48 51 52 52 51 49 46 42 39 36 33 31 28 24
23 21 18 15 14 13 12 11 10 10 9 7 6 5 4 2 2 4 4 6 8 10 11 13 15 16 18 20 24 27 30 34 37 39 42 45 46 47 48 50 51 51 49 47 44 40 38 36 34 31 27 24 21 19
21 17 13 10 8 9 11 8 7 6 5 4 2 1 3 5 8 11 12 14 17 19 19 20 21 22 24 27 30 33 36 39 43 45 46 46 48 49 50 50 48 46 43 40 38 36 34 32 29 27 26 25 25 24
17 15 12 9 5 6 9 9 6 4 2 1 3 5 8 11 14 16 19 19 23 25 26 26 26 27 29 31 35 38 42 45 46 46 47 48 49 49 47 45 42 39 36 33 30 28 26 25 24 24 24 24 26 27
15 13 11 8 7 7 7 6 5 4 3 5 7 9 12 15 17 21 22 24 27 30 30 30 30 31 33 37 41 44 45 45 46 47 48 47 45 42 39 35 31 28 26 24 23 23 23 23 23 23 24 25 26 27
15 13 12 11 10 9 7 6 5 6 8 10 12 14 16 18 21 24 25 28 32 33 33 32 32 35 39 43 45 45 45 46 48 47 45 40 36 32 28 26 24 24 23 23 23 23 23 24 24 24 24 25 26 26
13 13 12 11 9 8 8 7 9 11 14 16 17 19 21 23 25 27 29 32 34 35 34 34 37 42 45 45 44 45 46 47 45 41 35 32 28 25 24 24 24 24 24 23 23 23 23 24 24 24 25 26 28 29
12 10 9 8 9 10 12 13 15 17 19 21 22 24 26 29 29 31 34 35 36 35 35 39 44 46 44 44 45 46 46 42 38 33 29 27 25 25 25 25 24 24 24 23 23 24 25 26 27 29 30 31 32 34
Wind_Direction
291 291 290 285 281 278 274 272 269 282 285 279 269 261 255 249 230 227 219 204 202 200 196 199 194 199 201 200 199 205 208 211 211 222 216 227 225 223 226 226 241 246 241 228 225 233 238 240 239 251 247 244 254 259
288 288 284 280 283 278 268 267 276 280 262 264 268 258 247 237 220 214 200 198 200 204 199 200 200 198 204 193 184 199 200 206 213 216 220 214 223 224 224 229 227 228 243 234 227 231 240 247 246 251 257 251 240 244
279 272 267 271 270 266 261 260 264 277 276 260 255 242 234 219 210 198 194 196 200 196 199 198 195 199 202 200 196 193 191 184 206 212 211 211 219 220 218 224 236 204 242 227 214 218 214 228 240 233 235 232 226 225
267 266 274 275 274 269 262 259 260 268 263 256 238 223 208 197 189 181 187 193 196 195 197 202 198 203 202 201 201 196 191 197 190 192 216 215 216 214 215 224 226 227 229 212 196 201 201 217 234 228 227 228 228 231
268 269 269 274 274 267 265 261 251 259 242 224 209 194 180 176 175 180 185 186 191 183 186 199 198 196 191 194 198 195 207 199 184 190 204 209 213 220 220 210 218 217 237 195 203 201 219 210 226 216 229 231 234 237
257 262 272 269 275 267 265 260 241 235 207 188 181 172 162 162 170 176 179 175 169 168 182 178 178 184 188 203 210 212 212 203 205 202 202 201 202 211 219 217 215 220 227 231 227 230 223 233 241 243 239 241 243 246
258 262 266 276 283 269 249 244 222 209 192 174 168 165 165 167 173 172 155 164 160 154 151 162 181 195 200 205 198 197 202 204 205 211 217 217 215 219 221 208 209 220 225 225 226 228 229 234 238 245 249 251 254 257
294 285 275 280 280 268 224 220 196 177 170 165 157 160 160 158 172 162 154 166 165 156 160 155 140 184 191 187 184 193 202 209 212 218 218 226 223 226 230 231 221 217 227 230 233 235 238 241 247 252 255 258 262 267
300 300 253 286 263 232 203 198 184 168 159 155 149 146 155 171 170 159 165 169 167 171 175 172 157 169 175 183 183 196 201 205 209 213 216 222 225 229 237 235 235 229 235 237 237 242 245 248 252 258 264 269 271 273
297 286 258 263 231 200 193 184 176 166 166 160 155 153 154 144 146 147 158 163 169 176 178 177 158 164 188 189 194 203 213 219 223 224 232 234 230 235 239 239 233 232 236 244 245 245 252 256 261 267 272 276 280 283
325 307 313 223 176 166 164 161 154 161 166 164 160 153 154 154 147 157 166 174 188 187 186 176 174 176 195 201 208 222 234 239 242 238 240 243 246 247 243 245 236 238 240 245 248 251 254 261 270 273 278 281 279 281
50 60 120 129 142 139 147 148 149 157 162 159 149 142 142 144 150 167 178 181 183 180 181 170 168 185 198 190 200 210 216 227 234 241 240 241 244 247 244 248 245 241 239 243 244 253 266 269 271 274 279 280 279 278
90 101 112 123 133 137 142 145 143 143 144 143 143 146 153 159 171 174 183 176 164 156 179 182 183 192 199 204 202 202 224 235 238 243 247 255 259 251 249 259 254 245 241 249 256 265 269 274 271 270 276 280 276 278
88 101 95 116 118 129 140 146 150 139 147 158 163 163 168 173 168 143 158 171 187 193 201 209 215 220 214 216 219 222 236 218 212 224 294 266 254 246 250 254 254 254 247 252 260 269 274 276 273 272 275 276 277 277
97 100 101 123 130 130 141 149 155 155 155 158 164 170 172 180 175 161 169 191 211 219 220 217 210 204 206 210 220 224 213 224 244 259 288 285 282 270 257 259 248 238 247 255 266 276 276 277 275 276 280 281 282 281
109 105 107 109 122 139 147 149 145 153 159 171 183 185 169 178 184 192 206 203 197 187 181 184 184 182 187 191 201 220 232 275 284 266 266 272 280 272 262 255 257 263 263 265 275 279 282 283 283 282 284 283 283 284
123 115 111 111 106 116 140 146 142 137 149 159 168 175 175 174 175 175 170 170 172 173 170 176 180 193 216 203 223 247 268 270 267 273 275 283 285 280 274 269 270 271 272 276 280 283 285 284 282 283 285 285 286 285
107 111 109 118 126 127 140 152 150 149 154 160 162 161 155 152 152 145 140 146 151 163 177 178 188 216 229 244 254 258 258 261 272 280 280 278 280 285 289 287 284 280 276 281 283 284 284 284 283 283 283 284 286 287
129 125 128 128 131 137 156 165 162 156 150 148 148 147 146 150 155 157 162 170 182 186 191 201 215 227 235 249 254 248 251 266 276 284 285 286 283 281 279 282 280 280 281 285 285 284 284 285 285 287 287 288 289 289
134 137 139 133 137 147 167 177 177 174 172 173 172 175 176 176 182 191 195 196 208 210 213 221 226 227 229 234 248 259 265 269 271 273 275 275 278 282 285 289 289 289 289 288 288 288 289 290 290 291 292 292 292 293
150 140 136 146 148 158 163 175 181 186 185 184 181 181 184 188 194 200 193 182 180 179 185 191 202 222 239 249 257 270 274 272 274 278 281 283 289 291 291 290 290 290 290 290 291 292 293 293 292 292 292 291 290 290
145 141 128 118 119 126 147 171 173 168 168 169 172 174 177 178 176 177 179 187 194 205 212 223 239 250 257 261 259 264 280 283 282 284 286 288 291 294 295 296 295 295 294 294 294 294 293 293 293 294 295 295 296 296
140 124 109 116 115 102 89 101 133 149 159 163 165 164 166 169 172 182 194 203 204 200 192 186 191 214 242 262 275 281 287 294 300 301 301 300 298 297 295 294 293 293 293 294 294 294 295 296 297 298 298 298 298 299
132 121 120 118 105 99 97 93 94 106 134 146 150 150 150 148 145 143 143 150 155 158 169 213 261 275 281 285 299 308 307 301 296 294 294 294 294 294 294 294 295 295 296 296 297 298 298 299 299 299 300 301 301 300
135 127 123 119 115 113 114 110 108 112 105 110 118 127 131 135 138 143 140 127 51 331 309 305 304 301 304 303 296 291 291 293 295 297 299 300 300 300 300 299 298 298 299 299 299 300 299 300 301 301 302 302 300 299
142 135 126 115 112 116 119 117 118 118 116 116 120 123 125 129 124 109 79 320 297 307 313 310 309 307 305 299 296 296 300 303 306 307 307 307 305 304 303 303 302 302 302 302 302 302 303 303 303 303 303 303 300 296
148 141 133 132 129 126 131 138 139 139 136 129 134 136 146 133 74 31 21 10 3 353 342 335 327 320 312 306 305 306 308 311 311 312 311 309 309 308 308 307 306 306 305 305 304 304 304 303 302 300 298 297 293 288
156 157 158 152 142 139 140 147 152 153 159 154 140 66 14 11 3 355 353 351 351 346 342 334 326 321 315 312 310 311 314 315 315 314 313 313 312 311 310 310 309 308 307 306 306 305 305 304 301 297 290 287 286 285
172 178 183 189 193 184 168 167 177 180 192 278 336 344 349 349 345 343 340 338 340 339 336 328 321 317 315 313 315 316 318 317 316 316 316 315 314 314 314 313 312 311 310 310 310 311 311 309 308 304 300 296 292 291
180 188 198 217 211 198 198 205 209 230 269 306 320 327 331 334 334 331 328 327 328 330 327 323 319 316 316 317 319 319 318 318 318 318 317 317 317 317 318 319 320 321 321 321 321 320 319 317 314 311 308 304 301 297
198 206 203 204 211 215 221 230 246 275 295 306 309 314 316 318 321 321 319 320 323 323 321 318 317 317 319 320 320 319 320 321 320 319 319 320 321 323 326 329 330 329 328 326 325 323 321 320 318 316 314 312 310 308
211 207 211 218 225 238 251 268 282 289 296 300 303 307 311 313 315 315 315 318 319 318 317 317 318 321 321 321 321 322 322 321 320 321 321 322 324 326 327 328 328 329 329 329 329 328 326 325 324 322 320 318 315 312
224 230 239 248 256 261 268 276 283 288 294 299 304 306 308 310 311 312 314 316 315 315 317 319 321 322 321 321 323 323 322 321 322 321 321 322 322 324 326 327 327 328 328 329 330 329 327 324 322 319 318 316 314 312